Aérodrome :
LOGIN :

S'inscrire | Disclaimer

   EN    FR    IT 

 










Légende :    VFR   VFR Marginal   IFR   IFR Intensif   IFR Très Intensif
Visi : 
Plafond : 
>= 8 km
>= 3000ft
5 à 8 km
1000 à 3000 ft
1500m à 5 km
500 à 1000 ft
800 à 1500m
200 à 500 ft
< 800m
< 200 ft
Symboles :   Orages  Brouillard  Fortes neiges  Fortes précipitations  Vent > 20 kt
SIGMETs :   Divers  Orages  Givrage  Turbulence  Onde Orograph.  Cendres Volcan.







- Altitude de l'aérodrome : 978 ft
- Code IATA : LNZ


LOWL - Linz

DERNIER METAR :
  • 220620Z 09006KT 6000 -SN SCT017 BKN035 M02/M05 Q1017 NOSIG

METARs EXPIRÉS :
  • 220550Z 10005KT 6000 -SN FEW014 SCT023 BKN035 M02/M05 Q1017 NOSIG
  • 220520Z 10006KT 8000 -SN FEW021 BKN038 M02/M05 Q1017 NOSIG

TAF TAF LOWL
Valide du 22 à 06h jusqu'au 23 à 06h UTC


220515Z 2206/2306 10010KT 9999 SCT020 BKN035 TXM01/2214Z TNM03/2305Z
TEMPO 2206/2220 11012G25KT 5000 -SN BKN018
Pas de NOTAMs connus pour ce terrain.



MET'MAP, la Météo Aéronautique d'un coup d'oeil ! - Copyright ORBIFLY Décembre 2007 - Disclaimer

ORBIFLY MET'MAP TEAM :

Programmation & Développement : Alexandra Zaïnal
Conception & Développement : Baudouin d'Aumeries
Co-Programmation & Développement : Marc-Olivier Méhu
Soutien technique & logistique : Manuel Goepfert

Contact : metmap@orbifly.com




SOURCES & CREDITS :

   NOAA